sat.trackr.live / text

‹ back to catalog

STARLINK-33614

NORAD 63372 · 2025-063K

PAYLOAD ACTIVE UNKNOWN

§ Identity

Operator
Country
US
Launch date
2025-03-26
Launch site
AFWTR
Launch vehicle
Mass (kg)
RCS (m²)

Purposes: comms

External: N2YO · Heavens-Above · Gunter

§ Orbital elements

Epoch: 2026-09-19T15:20:53.162880Z

Period
93.85 min
Inclination
53.1590°
Eccentricity
0.0000624
Mean motion
15.34401303 rev/d
Perigee alt
462.3 km
Apogee alt
463.1 km
Semi-major
6,840.8 km
B*
6.4481e-4
RAAN
225.9388°
Arg perigee
283.9099°
Mean anomaly
76.1834°
Rev number
8,453

§ Raw data

STARLINK-336141 63372U 25063K   26262.63950420  .00021473  00000+0  64481-3 0  99962 63372  53.1590 225.9388 0000624 283.9099  76.1834 15.34401303 84538

JSON: /api/v1/satellites/63372 · /tle

For live sub-satellite position, see the globe view (requires WebGL).

§ Visibility from observer

Set your observer location to see the next 7 days of passes ≥ 10°. The values pass through the URL so the page stays shareable.

No JS? Fill the form by hand. The geolocation button needs JavaScript.